Regional Weather Roundup
Issued by NWS Sterling, VA

Home | Current Version | Previous Version | Graphics & Text | Print | Product List | Glossary On
Versions: 1 2 3 4 5 6 7 8 9 10 11 12 13 14 15 16 17 18 19 20 21 22 23 24 25 26 27 28 29 30 31 32 33 34 35 36 37 38 39 40 41 42 43 44 45 46 47 48 49 50
000
ASUS41 KLWX 101011
RWRLWX

REGIONAL WEATHER ROUNDUP
NATIONAL WEATHER SERVICE BALTIMORE MD/WASHINGTON DC
500 AM EST SAT DEC 10 2016

Note: "FAIR" indicates few or no clouds below 12,000 feet
with no significant weather and/or obstructions to visibility.
 TC=TEMPERATURE CELSIUS

 * =Non NWS site. Station does not report precipitation (e.g. rain,
    snow, etc.), thunder, or fog.

DCZ001-MDZ009-015-VAZ040>042-051-053>054-101100-
WASHINGTON METRO

CITY           SKY/WX    TMP DP  RH WIND       PRES   REMARKS
WASHINGTON NAT PTCLDY    31  15  52 W7        30.47S
DULLES         PTCLDY    27  13  55 W5        30.46S
ANDREWS AFB    CLEAR     28  15  58 W8        30.43F WCI  20
QUANTICO       CLEAR     29  15  56 NW3       30.49S
COLLEGE PARK*  CLEAR     30  16  55 W5        30.45S
LEESBURG*      PTCLDY    30  19  64 SW5       30.46S
GAITHERSBURG*  PTCLDY    27  12  54 W9        30.47S WCI  17

$$

MDZ006>007-011-014-101100-
BALTIMORE METRO

CITY           SKY/WX    TMP DP  RH WIND       PRES   REMARKS
BWI AIRPORT    MOCLDY    25  18  74 W9        30.44S WCI  15
MD SCIENCE CTR   N/A     31  14  49 MISG      30.44R
ANNAPOLIS      CLEAR     31  17  56 W6        30.44S
FORT MEADE*    CLEAR     25  21  86 CALM      30.47S

$$

MDZ012-015-019>023-101100-
MARYLAND EASTERN SHORE

CITY           SKY/WX    TMP DP  RH WIND       PRES   REMARKS
OCEAN CITY     CLEAR     27  18  69 NW5       30.45R
SALISBURY      CLEAR     28  19  69 W7        30.45R
BAY BRIDGE AP* CLEAR     30  19  64 MISG      30.45R
CAMBRIDGE*     PTCLDY    32  18  55 W6        30.45R
EASTON*        PTCLDY    31  18  57 NW10      30.48R WCI  23

$$

MDZ017>025-101100-
SOUTHERN MARYLAND

CITY           SKY/WX    TMP DP  RH WIND       PRES   REMARKS
PATUXENT RIVER CLEAR     27  17  66 W9        30.46R WCI  18
ST INIGOES     CLEAR     31  17  56 W9        30.46S WCI  23
LEONARDTOWN*   CLEAR     28  18  64 W6        30.47F

$$

MDZ003>005-101100-
NORTH CENTRAL MARYLAND

CITY           SKY/WX    TMP DP  RH WIND       PRES   REMARKS
FREDERICK*     PTCLDY    28  19  69 CALM      30.47S
HAGERSTOWN APT CLOUDY    29  14  53 W10       30.42R WCI  20
WESTMINSTER*     N/A     25  16  68 W6        30.39S

$$

MDZ501>502-101100-
WESTERN MARYLAND

CITY           SKY/WX    TMP DP  RH WIND       PRES   REMARKS
OAKLAND*       CLOUDY    14  14 100 W8G17     30.30R FOG     WCI   3
CUMBERLAND*    NOT AVBL

$$

VAZ025>031-101100-
SHENANDOAH VALLEY

CITY           SKY/WX    TMP DP  RH WIND       PRES   REMARKS
WINCHESTER*    MOCLDY    27  12  54 W8        30.44S WCI  18
FRONT ROYAL*   FAIR      28  14  54 CALM      30.45S
LURAY*         FAIR      27  18  69 SW7       30.46R
NEW MARKET*    FAIR      19  12  74 CALM      30.45R
STAUNTON*      CLEAR     18  13  80 CALM      30.46S
WAYNESBORO*    FAIR      20  10  65 SW7       30.43S

$$

WVZ021-048>050-054>055-101100-
EASTERN WEST VIRGINIA PANHANDLE

CITY           SKY/WX    TMP DP  RH WIND       PRES   REMARKS
MARTINSBURG    CLOUDY    28  15  58 W7        30.44R
PETERSBURG*    CLOUDY    27  15  59 SW5       30.47R

$$

VAZ036>039-050-101100-
CENTRAL FOOTHILLS

CITY           SKY/WX    TMP DP  RH WIND       PRES   REMARKS
CHARLOTTESVILL CLEAR     25  12  58 W3        30.46S
CULPEPER*      CLEAR     28  14  57 CALM      30.49R
ORANGE*          N/A     25  18  74 CALM      30.49R
GORDONSVILLE*  FAIR      21  14  75 CALM      30.47R
WARRENTON*     FAIR      18  13  78 CALM      30.46S

$$

VAZ055>057-101100-
NORTH AND CENTRAL PIEDMONT

CITY           SKY/WX    TMP DP  RH WIND       PRES   REMARKS
FREDERICKSBRG* CLEAR     25  18  74 W3        30.48S
STAFFORD*      PTCLDY    25  15  65 W3        30.52R

$$

NCZ024-NYZ072-PAZ021-071-VAZ022-071-101100-
OTHER REGIONAL OBSERVATIONS

CITY           SKY/WX    TMP DP  RH WIND       PRES   REMARKS
NEW YORK CITY  CLEAR     29  15  56 W8G17     30.36R WCI  21
PHILADELPHIA   PTCLDY    28  17  63 W3        30.41R
PITTSBURGH     FLURRIES  25  20  81 W7        30.42R
ROANOKE        CLEAR     20  11  68 W6        30.49R
RICHMOND       CLEAR     26  13  57 W5        30.49S
RALEIGH        CLEAR     22  15  75 CALM      30.51S

$$

ANZ530>537-101100-
MARINE OBSERVATIONS

STATION/POSITION TIME  TEMP    WIND        PRES
                       AIR SEA DIR/SP/G
                 (UTC) (F)     (DEG/KT/KT) (MB)
THOMAS PT LIGHT  1000   31 45  290/ 18/ 19   N/A
BALT KEY BRIDGE  0936   31     260/ 12/ 13 1030.8R
COVE POINT       0936   30     310/  8/ 12 1032.0R
LEWISETTA        0936   30 43  290/  8/  9 1031.6S
SOLOMONS ISLAND  0936   31 48  290/  5/ 11   N/A
PINEY POINT      0936          330/ 21/ 23   N/A

$$




USA.gov is the U.S. government's official web portal to all federal, state and local government web resources and services.